ZHUHAI-1 01 (CAS 4A) (42761 NORAD) Tracking and Keplerian Element Data

This shows tracking and keplerian element data for the satellite.

Feedback or suggestion? Click here.




ElementValue
Catalog42761
NameZHUHAI-1 01 (CAS 4A)
Epoch Orbit6005
Epoch Day198.69987519
Epoch Year2018
RAAN275.5077
Inclination43.0194
Eccentricity0.0010986
Argument of Perigee298.6106
Mean Anonmoly197.489
Mean Motion15.09400806
Decay Rate1.4E-06
L11 42761U 17034D 18198.69987519 .00000140 00000-0 22198-4 0 9997
L22 42761 43.0194 275.5077 0010986 298.6106 197.4890 15.09400806 60054

Live tracking and technical data element details for ZHUHAI-1 01 (CAS 4A) (NORAD 42761). ZHUHAI-1 01 (CAS 4A) can be tracked NOW for your location showing map with azimuth and elevation plus other details from your city location.

Track the satellite on the map from your city or location and see movement details for azimuth, elevation, latitude, longitude, range, height, and movement on the map or in text.







IsCatalogInMostPopularTable: catalog: 42761, numindb: 107
Update: records affected: 1



GetName: 42761 ZHUHAI-1 01 (CAS 4A)

Hit Count: updated at: Fri, 20 Jul 2018 20:32:54 GMT